Tracking 19219 objects as of 20-Jul-2018
HD Live streaming from Space Station
objects crossing your sky now

CZ-4 DEB

Track CZ-4 DEB now!
10-day predictions


NORAD ID: 29509
Int'l Code: 2006-046E
Perigee: 562.1 km
Apogee: 625.9 km
Inclination: 98.0 °
Period: 96.4 minutes
Semi major axis: 6964 km
RCS: 0.0058 m2 (small)
Launch date: October 23, 2006
Source: People's Republic of China (PRC)
Launch site: Taiyaun Space Center, China (TSC)

Note: This is SATELLITE DEBRIS
aabbcc
Your satellite tracking list
Your tracking list is empty




NASA's NSSDC Master Catalog

Two Line Element Set (TLE):
1 29509U 06046E   18201.55353959 +.00000213 +00000-0 +25651-4 0  9996
2 29509 097.9819 208.3300 0045767 136.8278 223.6544 14.93557865636419
Source of the keplerian elements: AFSPC